Weather reports worldwide

Advertisment
Granada/Aeropuerto, Spain (8419): temperature & dewpoint: 20.09.2018 17:00:00 - 26.09.2018 17:00:00 (CEST)Granada/Aeropuerto, Spain (8419): wind speed: 20.09.2018 17:00:00 - 26.09.2018 17:00:00 (CEST)Granada/Aeropuerto, Spain (8419): wind direction: 20.09.2018 17:00:00 - 26.09.2018 17:00:00 (CEST)Granada/Aeropuerto, Spain (8419): reduced air pressure: 20.09.2018 17:00:00 - 26.09.2018 17:00:00 (CEST)Granada/Aeropuerto, Spain (8419): visibility: 20.09.2018 17:00:00 - 26.09.2018 17:00:00 (CEST)
Date & Time tt [°C] td [°C] ff [km/h] ff [kn] dd ppp [hPa] vv [km]
26.09.2018 17:00:00 22,3 17,8 18 10 SSW 1022,1 25
26.09.2018 16:00:00 27,8 17,5 13 7 SE 1020,7 30
26.09.2018 15:00:00 30,0 15,6 8 4 ESE 1020,8 10
26.09.2018 14:00:00 28,4 15,8 2 1 E 1022,0 25
26.09.2018 13:00:00 27,9 16,0 0 0 N 1022,7 30
26.09.2018 12:00:00 25,8 17,0 4 2 ENE 1023,5 22
26.09.2018 11:00:00 24,3 17,5 5 3 ESE 1024,0 20
26.09.2018 10:00:00 22,1 17,0 0 0 N 1024,1 16
26.09.2018 09:00:00 19,7 16,4 8 4 ENE 1024,2 10
26.09.2018 08:00:00 18,8 17,3 2 1 E 1023,7 13
26.09.2018 07:00:00 19,3 17,6 4 2 E 1022,9 12
26.09.2018 06:00:00 18,8 17,3 0 0 N 1022,9 15
26.09.2018 05:00:00 20,1 17,8 4 2 ESE 1022,4 17
26.09.2018 04:00:00 20,3 17,9 4 2 SE 1022,4 20
26.09.2018 03:00:00 21,6 18,6 13 7 S 1022,3 21
26.09.2018 02:00:00 22,1 18,7 16 9 SE 1022,1 20
26.09.2018 01:00:00 22,6 18,8 15 8 SSE 1021,4 22
26.09.2018 00:00:00 23,4 18,3 4 2 S 1021,0 26
25.09.2018 23:00:00 23,7 17,9 11 6 SSW 1020,4 30
25.09.2018 22:00:00 24,6 17,0 11 6 S 1019,7 30
25.09.2018 21:00:00 25,3 16,2 15 8 S 1018,9 30
25.09.2018 20:00:00 26,7 16,6 16 9 S 1017,7 30
25.09.2018 19:00:00 29,2 16,6 22 12 SSE 1016,6 30
25.09.2018 18:00:00 31,4 14,9 24 13 SSE 1016,2 30
25.09.2018 17:00:00 32,2 14,1 21 11 S 1016,1 30
25.09.2018 16:00:00 33,5 14,2 8 4 SW 1016,2 17
25.09.2018 15:00:00 32,4 14,3 11 6 WNW 1017,1 30
25.09.2018 14:00:00 30,9 13,7 4 2 N 1018,1 30
25.09.2018 13:00:00 29,1 13,3 2 1 NW 1019,2 17
25.09.2018 12:00:00 26,2 12,6 2 1 NNW 1020,3 30
25.09.2018 11:00:00 23,0 13,9 0 0 N 1021,1 30
25.09.2018 10:00:00 19,3 13,5 0 0 N 1021,7 16
25.09.2018 09:00:00 15,9 12,7 0 0 N 1022,1 28
25.09.2018 08:00:00 14,6 12,5 0 0 N 1021,8 30
25.09.2018 07:00:00 15,0 12,3 0 0 N 1021,3 30
25.09.2018 06:00:00 15,4 12,9 0 0 N 1021,1 30
25.09.2018 05:00:00 16,3 13,2 4 2 S 1021,0 30
25.09.2018 04:00:00 16,9 13,6 0 0 N 1021,2 30
25.09.2018 03:00:00 17,7 13,4 2 1 S 1021,2 30
25.09.2018 02:00:00 18,4 13,5 0 0 N 1021,0 30
25.09.2018 01:00:00 19,6 12,8 4 2 N 1020,9 30
25.09.2018 00:00:00 21,4 12,0 5 3 S 1020,5 30
24.09.2018 23:00:00 22,2 13,0 0 0 N 1020,1 30
24.09.2018 22:00:00 24,4 10,9 4 2 W 1019,0 30
24.09.2018 21:00:00 26,0 10,4 11 6 WNW 1017,9 30
24.09.2018 20:00:00 29,1 11,2 16 9 S 1016,5 30
24.09.2018 19:00:00 32,3 12,0 13 7 S 1015,3 30
24.09.2018 18:00:00 33,9 11,4 2 1 SSW 1014,9 30
24.09.2018 17:00:00 34,2 11,4 9 5 SW 1015,3 30
24.09.2018 16:00:00 33,8 11,1 5 3 W 1016,0 30
24.09.2018 15:00:00 32,4 11,2 5 3 N 1017,1 30
24.09.2018 14:00:00 30,9 11,8 4 2 N 1018,4 30
24.09.2018 13:00:00 29,2 13,3 0 0 N 1019,6 30
24.09.2018 12:00:00 25,9 13,5 0 0 N 1020,7 30
24.09.2018 11:00:00 23,1 13,6 0 0 N 1021,3 30
24.09.2018 10:00:00 19,2 13,6 0 0 N 1022,1 26
24.09.2018 09:00:00 15,8 12,9 0 0 N 1022,5 30
24.09.2018 08:00:00 14,0 12,4 0 0 N 1022,4 30
24.09.2018 07:00:00 14,6 12,6 0 0 N 1021,8 30
24.09.2018 06:00:00 15,4 13,2 0 0 N 1021,6 30
24.09.2018 05:00:00 15,8 13,3 0 0 N 1021,6 30
24.09.2018 04:00:00 16,6 13,9 0 0 N 1021,8 30
24.09.2018 03:00:00 16,9 13,9 0 0 N 1022,0 30
24.09.2018 02:00:00 17,8 14,3 0 0 N 1022,0 30
24.09.2018 01:00:00 18,9 14,2 0 0 N 1022,0 30
24.09.2018 00:00:00 20,3 14,6 0 0 N 1021,5 30
23.09.2018 23:00:00 21,5 12,7 4 2 SE 1021,0 30
23.09.2018 22:00:00 23,4 13,3 0 0 N 1020,2 30
23.09.2018 21:00:00 25,2 12,4 8 4 N 1019,3 30
23.09.2018 20:00:00 28,9 11,9 11 6 SSW 1017,9 30
23.09.2018 19:00:00 32,2 11,0 11 6 S 1016,9 30
23.09.2018 18:00:00 33,7 10,3 4 2 SW 1016,5 30
23.09.2018 17:00:00 33,6 10,7 2 1 W 1016,8 30
23.09.2018 16:00:00 32,7 9,4 9 5 WNW 1017,5 30
23.09.2018 15:00:00 31,8 11,5 9 5 WNW 1018,4 30
23.09.2018 14:00:00 30,7 12,0 5 3 W 1019,5 30
23.09.2018 13:00:00 29,0 13,3 4 2 S 1020,4 30
23.09.2018 12:00:00 26,3 13,4 0 0 N 1021,6 30
23.09.2018 11:00:00 22,5 16,1 0 0 N 1022,6 30
23.09.2018 10:00:00 19,1 15,4 0 0 N 1023,0 16
23.09.2018 09:00:00 16,0 14,2 0 0 N 1023,3 25
23.09.2018 08:00:00 14,6 13,3 0 0 N 1023,3 25
23.09.2018 07:00:00 15,2 13,9 4 2 SW 1023,1 13
23.09.2018 06:00:00 15,6 14,3 0 0 N 1022,8 20
23.09.2018 05:00:00 16,3 14,8 0 0 N 1022,6 18
23.09.2018 04:00:00 17,1 15,1 0 0 N 1022,8 22
23.09.2018 03:00:00 17,9 15,6 0 0 N 1022,8 24
23.09.2018 02:00:00 18,5 15,9 0 0 N 1022,8 26
23.09.2018 01:00:00 19,1 16,1 0 0 N 1022,8 30
23.09.2018 00:00:00 20,4 15,8 4 2 WSW 1022,5 30
22.09.2018 23:00:00 22,2 16,0 0 0 N 1021,7 30
22.09.2018 22:00:00 23,6 16,1 5 3 SE 1021,1 30
22.09.2018 21:00:00 25,9 15,9 4 2 NNE 1019,5 30
22.09.2018 20:00:00 28,7 15,1 18 10 S 1018,3 30
22.09.2018 19:00:00 31,5 15,3 16 9 S 1017,1 30
22.09.2018 18:00:00 33,5 11,2 4 2 W 1016,8 30
22.09.2018 17:00:00 33,7 11,4 9 5 SSW 1017,1 30
22.09.2018 16:00:00 32,9 12,1 5 3 W 1017,8 30
22.09.2018 15:00:00 32,1 13,1 9 5 WSW 1018,4 30
22.09.2018 14:00:00 30,7 15,3 4 2 WSW 1019,4 20
22.09.2018 13:00:00 28,4 15,3 0 0 N 1020,3 30
22.09.2018 12:00:00 25,5 15,3 0 0 N 1021,3 30
22.09.2018 11:00:00 22,1 15,0 0 0 N 1022,2 25
22.09.2018 10:00:00 19,1 14,3 0 0 N 1022,6 30
22.09.2018 09:00:00 15,9 13,9 0 0 N 1023,1 25
22.09.2018 08:00:00 14,4 13,1 0 0 N 1022,7 25
22.09.2018 07:00:00 14,8 13,5 2 1 S 1022,2 24
22.09.2018 06:00:00 15,4 13,8 4 2 SW 1021,7 25
22.09.2018 05:00:00 16,1 14,1 0 0 N 1021,3 30
22.09.2018 04:00:00 16,7 13,8 4 2 SSW 1021,3 30
22.09.2018 03:00:00 17,1 13,6 0 0 N 1021,4 30
22.09.2018 02:00:00 18,0 14,1 0 0 N 1021,1 30
22.09.2018 01:00:00 18,4 13,5 0 0 N 1021,0 30
22.09.2018 00:00:00 19,9 12,0 0 0 N 1020,4 30
21.09.2018 23:00:00 20,7 14,1 0 0 N 1019,8 30
21.09.2018 22:00:00 23,1 13,6 0 0 N 1018,9 30
21.09.2018 21:00:00 24,9 12,1 5 3 NNW 1017,3 30
21.09.2018 20:00:00 27,9 12,5 9 5 S 1015,9 30
21.09.2018 19:00:00 30,4 13,9 15 8 S 1014,7 30
21.09.2018 18:00:00 31,1 13,2 2 1 W 1014,4 30
21.09.2018 17:00:00 32,3 13,9 5 3 WSW 1014,3 30
21.09.2018 16:00:00 31,5 13,0 8 4 SW 1014,8 30
21.09.2018 15:00:00 30,3 16,3 2 1 SSE 1015,7 25
21.09.2018 14:00:00 28,8 17,1 2 1 SW 1016,8 25
21.09.2018 13:00:00 26,8 17,5 2 1 WNW 1017,8 24
21.09.2018 12:00:00 24,6 17,8 2 1 WSW 1018,6 18
21.09.2018 11:00:00 21,6 16,5 0 0 N 1019,5 20
21.09.2018 10:00:00 18,7 16,2 0 0 N 1019,9 16
21.09.2018 09:00:00 16,1 15,3 0 0 N 1020,2 15
21.09.2018 08:00:00 15,2 14,4 4 2 S 1020,0 15
21.09.2018 07:00:00 15,5 14,7 0 0 N 1019,5 16
21.09.2018 06:00:00 15,9 15,3 0 0 N 1019,3 7
21.09.2018 05:00:00 16,8 15,8 0 0 N 1019,0 10
21.09.2018 04:00:00 16,7 15,6 0 0 N 1019,1 13
21.09.2018 03:00:00 17,5 15,7 5 3 SSW 1019,1 20
21.09.2018 02:00:00 17,9 15,7 4 2 SW 1019,2 24
21.09.2018 01:00:00 18,4 15,9 0 0 N 1019,0 27
21.09.2018 00:00:00 20,0 16,5 2 1 WSW 1018,8 30
20.09.2018 23:00:00 21,2 17,4 5 3 N 1018,1 20
20.09.2018 22:00:00 22,8 18,1 5 3 SW 1017,4 26
20.09.2018 21:00:00 24,2 18,8 9 5 S 1016,3 28
20.09.2018 20:00:00 25,9 19,2 13 7 SSE 1015,6 25
20.09.2018 19:00:00 28,0 19,0 13 7 SSE 1015,1 22
20.09.2018 18:00:00 28,8 18,4 15 8 S 1015,2 29
20.09.2018 17:00:00 28,8 18,1 11 6 S 1015,8 30

tt = temperature
td = dewpoint
ff = wind speed
dd = wind direction
ppp = reduced air pressure
vv = visibility

Next stations